CW2969 Weather Reports


time (UTC)temp
C
wind
direction
speed
KPH
gust
KPH
rain 1hr
cm
rain 24hr
cm
rain mn
cm
humidity
%
barometer
mb
20260502190510 23 331 1.6 12.9 0.00 0.69 0.00 56 1020.4
20260502190010 23 105 3.2 4.8 0.00 0.69 0.00 57 1020.4
20260502185510 22 211 1.6 4.8 0.00 0.69 0.00 56 1020.5
20260502185010 22 11 1.6 6.4 0.00 0.69 0.00 57 1020.5
20260502184510 22 103 0.0 11.3 0.00 0.69 0.00 58 1020.6
20260502184010 22 100 4.8 11.3 0.00 0.69 0.00 58 1020.6
20260502183510 22 116 3.2 9.7 0.00 0.69 0.00 58 1020.7
20260502182510 22 213 1.6 4.8 0.00 0.71 0.00 60 1020.8
20260502182010 22 288 3.2 11.3 0.00 0.76 0.00 60 1021.0
20260502181510 22 331 3.2 12.9 0.00 0.81 0.00 62 1021.0
20260502181009 21 355 6.4 14.5 0.00 0.86 0.00 61 1021.1
20260502180509 22 304 6.4 14.5 0.00 0.91 0.00 62 1021.3
20260502164008 20 340 4.8 6.4 0.00 1.14 0.00 68 1022.0
20260502163508 20 172 0.0 6.4 0.00 1.14 0.00 68 1022.0
20260502163008 20 123 3.2 4.8 0.00 1.14 0.00 68 1022.0
20260502162508 19 103 0.0 4.8 0.00 1.14 0.00 69 1022.0
20260502162009 19 93 3.2 8.0 0.00 1.14 0.00 69 1022.0
20260502161509 19 253 0.0 8.0 0.00 1.14 0.00 70 1022.0
20260502161008 19 340 3.2 4.8 0.00 1.14 0.00 71 1022.1
20260502160508 18 16 3.2 4.8 0.00 1.14 0.00 71 1022.1
20260502152011 17 139 1.6 12.9 0.00 1.27 0.00 76 1022.1
20260502151511 17 355 8.0 12.9 0.00 1.27 0.00 78 1022.0
20260502151011 16 125 4.8 8.0 0.00 1.27 0.00 78 1022.0
20260502150511 16 345 4.8 8.0 0.00 1.27 0.00 79 1022.0
20260502130510 12 315 1.6 6.4 0.00 1.70 0.00 82 1020.6
20260502123509 10 341 0.0 4.8 0.00 1.73 0.00 82 1020.2
20260502123009 10 84 0.0 1.6 0.00 1.73 0.00 82 1020.0
20260502122509 10 345 0.0 1.6 0.00 1.78 0.00 83 1019.8
20260502122009 10 84 0.0 0.0 0.00 1.83 0.00 83 1019.8
20260502121509 10 346 0.0 0.0 0.00 1.85 0.00 83 1019.6
20260502121009 10 346 0.0 0.0 0.00 1.85 0.00 83 1019.6
20260502120508 10 346 0.0 0.0 0.00 1.88 0.00 83 1019.6
20260502115508 10 346 0.0 1.6 0.00 1.96 0.00 83 1019.3
20260502114509 10 346 0.0 0.0 0.00 2.03 0.00 83 1019.2
20260502113508 10 346 0.0 0.0 0.00 2.11 0.00 83 1019.1
20260502113008 10 346 0.0 0.0 0.00 2.13 0.00 83 1019.2
20260502112508 10 346 0.0 0.0 0.00 2.13 0.00 83 1019.1
20260502112007 11 346 0.0 1.6 0.00 2.16 0.00 83 1019.1
20260502111507 11 346 0.0 1.6 0.00 2.16 0.00 83 1019.1
20260502111007 11 346 0.0 0.0 0.00 2.16 0.00 83 1019.0
20260502110507 11 346 0.0 1.6 0.00 2.21 0.00 83 1018.9
20260502110007 11 346 1.6 1.6 0.00 2.24 0.00 83 1018.9
20260502105508 11 346 0.0 0.0 0.00 2.29 0.00 83 1018.9
20260502104507 11 346 0.0 1.6 0.00 2.39 0.00 83 1018.7
20260502104007 11 346 0.0 3.2 0.00 2.41 0.00 83 1018.6
20260502103507 11 340 1.6 3.2 0.00 2.46 0.00 83 1018.6
20260502103007 11 355 0.0 3.2 0.00 2.49 0.00 83 1018.6
20260502102507 11 12 3.2 3.2 0.00 2.51 0.00 83 1018.5
20260502102007 11 38 0.0 1.6 0.00 2.54 0.00 83 1018.3
20260502101006 11 38 0.0 4.8 0.00 2.59 0.00 83 1018.2
20260502100506 11 355 1.6 4.8 0.00 2.62 0.00 83 1018.2
20260502091506 11 333 1.6 4.8 0.00 2.72 0.00 83 1017.4
20260502091006 11 5 1.6 4.8 0.00 2.77 0.00 83 1017.4
20260502090506 11 29 0.0 6.4 0.00 2.82 0.00 83 1017.4
20260502065534 12 360 1.6 6.4 0.00 3.40 0.00 83 1017.0
20260502065034 12 360 4.8 4.8 0.00 3.40 0.00 83 1017.0
20260502064534 12 103 0.0 3.2 0.00 3.40 0.00 83 1017.0
20260502063534 12 19 0.0 3.2 0.00 3.43 0.00 83 1017.2
20260502063034 12 23 0.0 3.2 0.00 3.43 0.00 83 1017.2
20260502062534 12 28 1.6 6.4 0.00 3.43 0.00 82 1017.3
20260502062034 12 327 0.0 6.4 0.00 3.43 0.00 82 1017.4
20260502061534 12 19 1.6 8.0 0.00 3.43 0.00 82 1017.3
20260502060534 12 345 3.2 4.8 0.00 3.43 0.00 82 1017.4
20260502055533 12 63 0.0 3.2 0.00 3.43 0.00 82 1017.2
20260502055034 12 24 1.6 3.2 0.00 3.43 0.00 82 1017.2
20260502054534 12 29 1.6 3.2 0.00 3.43 0.00 82 1017.2
20260502054033 12 25 0.0 3.2 0.00 3.43 0.00 82 1017.1
20260502053534 12 33 1.6 3.2 0.00 3.43 0.00 82 1017.2
20260502053034 12 55 0.0 3.2 0.00 3.43 0.00 82 1017.0
20260502052533 12 80 3.2 3.2 0.00 3.43 0.00 82 1017.1
20260502052033 12 22 0.0 1.6 0.00 3.43 0.00 82 1017.1
20260502051533 12 30 1.6 1.6 0.00 3.43 0.00 82 1017.1
20260502051033 12 5 0.0 4.8 0.00 3.43 0.00 82 1017.1
20260502050033 12 360 3.2 4.8 0.00 3.43 0.00 82 1016.8
20260502045533 12 349 0.0 4.8 0.00 3.43 3.43 82 1016.8
20260502045033 12 24 0.0 4.8 0.00 3.43 3.43 82 1017.0
20260502044533 12 55 0.0 3.2 0.00 3.43 3.43 82 1017.0
20260502044033 12 341 0.0 4.8 0.00 3.43 3.43 82 1017.1
20260502043533 13 37 1.6 4.8 0.00 3.43 3.43 82 1017.1
20260502043033 13 355 0.0 4.8 0.00 3.43 3.43 82 1017.1
20260502042033 13 349 0.0 4.8 0.00 3.45 3.43 82 1017.1
20260502041533 13 314 0.0 6.4 0.00 3.45 3.43 82 1017.0
20260502041033 13 350 4.8 6.4 0.00 3.45 3.43 82 1016.9
20260502040532 13 344 1.6 4.8 0.00 3.45 3.43 82 1016.9
20260502040033 13 313 3.2 3.2 0.00 3.45 3.43 82 1016.9
20260502035532 13 113 1.6 6.4 0.00 3.45 3.43 82 1016.9
20260502035032 13 245 0.0 6.4 0.00 3.45 3.43 82 1017.0
20260502034533 13 70 0.0 8.0 0.00 3.45 3.43 82 1017.1
20260502034033 13 348 6.4 8.0 0.00 3.45 3.43 82 1017.1
20260502032532 13 80 3.2 14.5 0.00 3.45 3.43 82 1016.9
20260502032032 13 22 6.4 14.5 0.00 3.45 3.43 82 1016.8
20260502031532 13 117 3.2 3.2 0.00 3.45 3.43 82 1016.7
20260502030532 12 120 4.8 12.9 0.00 3.45 3.43 82 1016.5
20260502030032 12 198 6.4 11.3 0.00 3.45 3.43 81 1016.6
20260502025532 12 346 3.2 6.4 0.00 3.45 3.43 81 1016.5
20260502025031 12 296 4.8 6.4 0.00 3.45 3.43 81 1016.3
20260502024531 12 126 1.6 6.4 0.00 3.45 3.43 81 1016.3
20260502023531 12 138 1.6 4.8 0.00 3.45 3.43 81 1016.1
20260502023031 12 72 1.6 6.4 0.00 3.45 3.43 81 1016.1
20260502022031 12 139 3.2 11.3 0.00 3.48 3.43 81 1015.8
20260502021031 12 46 0.0 9.7 0.00 3.48 3.43 80 1015.7
20260502020531 12 338 4.8 4.8 0.00 3.48 3.43 80 1015.6
20260502020031 12 83 0.0 16.1 0.00 3.48 3.43 80 1015.5
20260502015531 12 16 1.6 16.1 0.00 3.48 3.43 80 1015.5
20260502015031 12 123 3.2 16.1 0.00 3.48 3.43 80 1015.5
20260502014531 12 26 1.6 9.7 0.00 3.48 3.43 80 1015.3
20260502014031 12 349 9.7 9.7 0.00 3.48 3.43 80 1015.2
20260502013030 12 149 3.2 16.1 0.00 3.48 3.43 80 1015.1
20260502012530 12 325 6.4 16.1 0.00 3.48 3.43 80 1015.1
20260502012031 12 33 9.7 11.3 0.00 3.48 3.43 80 1014.9
20260502011031 12 16 3.2 8.0 0.03 3.48 3.43 80 1014.8
20260502010030 12 5 1.6 6.4 0.03 3.48 3.43 80 1014.7
20260502005530 12 31 1.6 9.7 0.03 3.48 3.43 80 1014.5
20260502005030 13 360 8.0 19.3 0.03 3.48 3.43 79 1014.6
20260502004530 13 323 3.2 19.3 0.03 3.48 3.43 80 1014.5
20260502004030 13 69 17.7 17.7 0.03 3.48 3.43 79 1014.2
20260502003530 13 342 6.4 17.7 0.03 3.48 3.43 79 1014.1
20260502003030 13 346 3.2 3.2 0.03 3.48 3.43 79 1013.8
20260502002530 13 328 1.6 17.7 0.03 3.48 3.43 79 1013.9
20260502002030 13 297 4.8 17.7 0.03 3.48 3.43 79 1013.4
20260502001530 13 52 1.6 4.8 0.00 3.45 3.40 79 1013.5
20260502001029 13 63 4.8 4.8 0.00 3.45 3.40 79 1013.5
20260502000530 13 65 1.6 3.2 0.00 3.45 3.40 79 1013.7
20260502000029 13 53 1.6 8.0 0.00 3.45 3.40 80 1013.1
20260501235529 13 163 6.4 8.0 0.00 3.45 3.40 80 1012.9
20260501235029 13 73 1.6 9.7 0.00 3.45 3.40 79 1013.0
20260501234529 13 177 3.2 9.7 0.00 3.45 3.40 79 1013.3
20260501234029 13 351 8.0 14.5 0.00 3.45 3.40 79 1013.4
20260501233529 13 355 1.6 14.5 0.00 3.45 3.40 79 1013.7
20260501232529 13 126 0.0 12.9 0.03 3.45 3.40 79 1013.4
20260501232028 13 254 1.6 16.1 0.03 3.45 3.40 79 1013.5
20260501231528 13 20 11.3 16.1 0.05 3.45 3.40 79 1013.2
20260501231029 13 44 3.2 9.7 0.08 3.45 3.40 79 1013.2
20260501230528 13 316 4.8 9.7 0.13 3.45 3.40 79 1013.0
20260501225028 14 113 9.7 9.7 0.18 3.45 3.40 79 1012.7
20260501224528 14 350 3.2 14.5 0.18 3.45 3.40 79 1012.8
20260501224028 14 333 3.2 17.7 0.20 3.45 3.40 79 1012.6
20260501223528 14 196 3.2 17.7 0.23 3.45 3.40 79 1012.4
20260501223028 14 355 3.2 14.5 0.25 3.45 3.40 79 1012.7
20260501221528 14 107 4.8 16.1 0.28 3.40 3.35 79 1012.3
20260501221028 14 89 3.2 16.1 0.28 3.38 3.33 79 1012.1
20260501220528 14 123 1.6 6.4 0.23 3.33 3.28 79 1012.3
20260501220028 14 360 4.8 8.0 0.23 3.30 3.25 79 1012.4
20260501215528 14 346 3.2 8.0 0.25 3.30 3.25 79 1012.3
20260501215027 14 355 1.6 8.0 0.25 3.28 3.23 79 1012.6
20260501214527 14 348 0.0 8.0 0.25 3.28 3.23 79 1012.8
20260501213528 14 27 1.6 4.8 0.23 3.23 3.17 79 1012.1
20260501213027 14 315 0.0 3.2 0.20 3.20 3.15 79 1011.8
20260501212527 14 257 1.6 14.5 0.15 3.15 3.10 79 1011.6
20260501212027 14 93 1.6 16.1 0.13 3.12 3.07 79 1011.4
20260501211527 14 337 3.2 16.1 0.15 3.12 3.07 79 1011.6
20260501211027 15 347 4.8 8.0 0.13 3.10 3.05 79 1011.7
20260501210027 15 345 1.6 8.0 0.15 3.07 3.02 79 1011.2
20260501205527 15 113 6.4 16.1 0.13 3.05 3.00 79 1011.1
20260501205027 15 5 3.2 16.1 0.10 3.02 2.97 79 1010.7
20260501204027 15 350 3.2 9.7 0.10 3.00 2.95 79 1010.3
20260501203527 15 283 1.6 9.7 0.10 3.00 2.95 79 1010.6
20260501203027 15 75 1.6 6.4 0.13 3.00 2.95 79 1010.6
20260501202527 15 74 1.6 6.4 0.15 3.00 2.95 79 1010.6
20260501202027 15 327 4.8 12.9 0.18 3.00 2.95 79 1010.4
20260501201527 15 5 6.4 12.9 0.18 2.97 2.92 79 1010.1
20260501201027 15 271 0.0 11.3 0.18 2.97 2.92 79 1009.7
20260501200027 15 107 9.7 9.7 0.13 2.92 2.87 78 1010.0
20260501195526 15 109 9.7 9.7 0.13 2.92 2.87 78 1010.4
20260501194526 15 355 6.4 11.3 0.10 2.90 2.84 78 1010.9
20260501194026 15 9 3.2 11.3 0.10 2.90 2.84 78 1010.5
20260501193026 15 63 3.2 8.0 0.08 2.87 2.82 79 1011.9
20260501192526 15 324 3.2 8.0 0.08 2.84 2.79 79 1011.3
20260501191526 15 339 0.0 17.7 0.13 2.79 2.74 79 1012.0
20260501191026 15 312 8.0 19.3 0.18 2.82 2.74 79 1012.3